Overview Statistics Trail Chart Weather Telemetry Raw packets
 

This is the latest recevied weather packets stored in our database for station/object KB9YVI-11. If no packets are shown the sender has not sent any weather packets the latest 10 day(s).

<< 30 31 32 33 34 35 36 >>
Time Temp. Humidity Pressure Rain* Wind** Luminosity Snow
1788317817 25.56° C 100% 0 hPa 0 mm - - -
1788315716 26.11° C 100% 0 hPa 0 mm - - -
1788312116 27.22° C 100% 0 hPa 0 mm - - -
1788308516 30.56° C 95% 0 hPa 0 mm - - -
1788304916 33.33° C 80% 0 hPa 0 mm - - -
1788301316 36.11° C 68% 0 hPa 0 mm - - -
1788297717 36.11° C 67% 0 hPa 0 mm - - -
1788294117 36.11° C 67% 0 hPa 0 mm - - -
1788290517 35.56° C 67% 0 hPa 0 mm - - -
1788286917 33.89° C 77% 0 hPa 0 mm - - -
1788286318 33.89° C 79% 0 hPa 0 mm - - -
1788283317 32.78° C 84% 0 hPa 0 mm - - -
1788279717 31.67° C 88% 0 hPa 0 mm - - -
1788277919 31.11° C 90% 0 hPa 0 mm - - -
1788276118 30° C 94% 0 hPa 0 mm - - -
1788275819 30° C 94% 0 hPa 0 mm - - -
1788275519 30° C 96% 0 hPa 0 mm - - -
1788272518 28.33° C 97% 0 hPa 0 mm - - -
1788268918 26.11° C 100% 0 hPa 0 mm - - -
1788265318 24.44° C 100% 0 hPa 0 mm - - -
1788263221 23.89° C 100% 0 hPa 0 mm - - -
1788261718 23.89° C 100% 0 hPa 0 mm - - -
1788261420 23.89° C 100% 0 hPa 0 mm - - -
1788258119 23.89° C 100% 0 hPa 0 mm - - -
1788257820 23.89° C 100% 0 hPa 0 mm - - -

* Rain latest hour (hover to see other rain measurements)
** Current wind speed in m/s (hover to see current wind gust speed)